Location: Newark
(41.8083°N, 72.2500°W)
Time: 19:50:00
(UTC+00:00)

Courier 1B - Pass Details

Date: 02 December 2021
Orbit: 962 x 1209 km, 28.3° (Epoch: 19 January)

Event Time Altitude Azimuth Distance (km) Brightness Sun altitude
Rises 01:22:39 0° 253° (WSW) 3,845 11.2 -44.7°
Reaches altitude 10° 01:26:02 10° 240° (WSW) 2,844 10.3 -45.3°
Enters shadow 01:27:02 13° 234° (SW) 2,593 10.0 -45.5°
Maximum altitude 01:31:12 23° 191° (S) 2,005 - -46.3°
Drops below altitude 10° 01:36:11 10° 142° (SE) 2,730 - -47.2°
Sets 01:39:21 0° 128° (SE) 3,653 - -47.8°
